TimeAEST,TemperatureF,Dew PointF,Humidity,Sea Level PressureIn,VisibilityMPH,Wind Direction,Wind SpeedMPH,Gust SpeedMPH,PrecipitationIn,Events,Conditions,WindDirDegrees,DateUTC
12:00 AM,70,67,88,29.96,,South,3.5,,,,,170,2013-09-28 14:00:00
12:00 AM,69.8,68.0,94,29.95,6.2,South,3.5,-,N/A,,Partly Cloudy,170,2013-09-28 14:00:00
12:30 AM,69.8,68.0,94,29.95,6.2,Calm,Calm,-,N/A,,Partly Cloudy,0,2013-09-28 14:30:00
1:00 AM,69,67,90,29.95,,South,1.2,,,,,170,2013-09-28 15:00:00
1:00 AM,68.0,66.2,94,29.95,6.2,South,1.2,-,N/A,,Partly Cloudy,170,2013-09-28 15:00:00
1:30 AM,68.0,68.0,100,29.95,6.2,West,2.3,-,N/A,,Partly Cloudy,280,2013-09-28 15:30:00
2:00 AM,68.0,66.2,94,29.92,6.2,Calm,Calm,-,N/A,,Partly Cloudy,0,2013-09-28 16:00:00
2:30 AM,68.0,66.2,94,29.92,6.2,Calm,Calm,-,N/A,,Partly Cloudy,0,2013-09-28 16:30:00
3:00 AM,67,66,97,29.92,,Calm,Calm,,,,,,2013-09-28 17:00:00
3:00 AM,68.0,66.2,94,29.92,6.2,Calm,Calm,-,N/A,,Partly Cloudy,0,2013-09-28 17:00:00
3:30 AM,68.0,66.2,94,29.92,6.2,WSW,3.5,-,N/A,,Partly Cloudy,250,2013-09-28 17:30:00
4:00 AM,68,67,94,29.92,,West,1.2,,,,,270,2013-09-28 18:00:00
4:00 AM,68.0,66.2,94,29.89,6.2,West,1.2,-,N/A,,Partly Cloudy,270,2013-09-28 18:00:00
4:30 AM,68.0,66.2,94,29.92,6.2,NNW,4.6,-,N/A,,Partly Cloudy,340,2013-09-28 18:30:00
5:00 AM,68.0,66.2,94,29.92,6.2,West,4.6,-,N/A,,Partly Cloudy,270,2013-09-28 19:00:00
5:30 AM,66.2,66.2,100,29.92,6.2,Calm,Calm,-,N/A,,Partly Cloudy,0,2013-09-28 19:30:00
6:00 AM,69,66,87,29.94,,South,3.5,,,,,180,2013-09-28 20:00:00
6:00 AM,68.0,66.2,94,29.92,6.2,South,3.5,-,N/A,,Partly Cloudy,180,2013-09-28 20:00:00
6:30 AM,68.0,66.2,94,29.95,6.2,Calm,Calm,-,N/A,,Partly Cloudy,0,2013-09-28 20:30:00
7:00 AM,70,67,89,29.97,,WNW,1.2,,,,,300,2013-09-28 21:00:00
7:00 AM,69.8,68.0,94,29.95,6.2,WNW,1.2,-,N/A,,Partly Cloudy,300,2013-09-28 21:00:00
7:30 AM,73.4,68.0,83,29.95,6.2,SSE,9.2,-,N/A,,Partly Cloudy,150,2013-09-28 21:30:00
8:00 AM,78.8,68.0,69,29.98,6.2,SE,9.2,-,N/A,,Partly Cloudy,140,2013-09-28 22:00:00
8:30 AM,77.0,66.2,69,29.98,6.2,South,8.1,-,N/A,,Partly Cloudy,170,2013-09-28 22:30:00
9:00 AM,80,67,55,29.98,19,SSE,9.2,,,,Partly Cloudy,160,2013-09-28 23:00:00
9:00 AM,80.6,66.2,61,29.98,6.2,SSE,9.2,-,N/A,,Partly Cloudy,160,2013-09-28 23:00:00
9:30 AM,80.6,66.2,61,29.98,6.2,SSE,6.9,-,N/A,,Partly Cloudy,150,2013-09-28 23:30:00
10:00 AM,83,66,47,29.99,,ESE,6.9,,,,,120,2013-09-29 00:00:00
10:00 AM,84.2,66.2,55,29.98,6.2,ESE,6.9,-,N/A,,Scattered Clouds,120,2013-09-29 00:00:00
10:30 AM,80.6,66.2,61,29.98,6.2,ENE,8.1,-,N/A,,Partly Cloudy,60,2013-09-29 00:30:00
11:00 AM,82.4,66.2,58,29.95,6.2,NE,11.5,-,N/A,,Partly Cloudy,40,2013-09-29 01:00:00
11:30 AM,84.2,68.0,58,29.95,6.2,NE,12.7,-,N/A,,Partly Cloudy,50,2013-09-29 01:30:00
12:00 PM,83,66,48,29.94,,NE,13.8,,,,,50,2013-09-29 02:00:00
12:00 PM,82.4,66.2,58,29.92,6.2,NE,13.8,-,N/A,,Partly Cloudy,50,2013-09-29 02:00:00
12:30 PM,84.2,66.2,55,29.92,6.2,NE,13.8,-,N/A,,Partly Cloudy,50,2013-09-29 02:30:00
1:00 PM,84,66,45,29.92,,NE,12.7,,,,,50,2013-09-29 03:00:00
1:00 PM,84.2,66.2,55,29.92,6.2,NE,12.7,-,N/A,,Partly Cloudy,50,2013-09-29 03:00:00
1:30 PM,82.4,66.2,58,29.89,6.2,NE,12.7,-,N/A,,Partly Cloudy,50,2013-09-29 03:30:00
2:00 PM,84.2,66.2,55,29.89,6.2,NE,11.5,-,N/A,,Partly Cloudy,50,2013-09-29 04:00:00
2:30 PM,84.2,66.2,55,29.89,6.2,NE,11.5,-,N/A,,Partly Cloudy,40,2013-09-29 04:30:00
3:00 PM,82,67,53,29.89,19,ENE,12.7,,,,Partly Cloudy,60,2013-09-29 05:00:00
3:00 PM,82.4,68.0,62,29.89,6.2,ENE,12.7,-,N/A,,Partly Cloudy,60,2013-09-29 05:00:00
3:30 PM,82.4,69.8,66,29.89,6.2,NNE,11.5,-,N/A,,Partly Cloudy,30,2013-09-29 05:30:00
4:00 PM,82.4,68.0,62,29.89,6.2,NNE,12.7,-,N/A,,Partly Cloudy,30,2013-09-29 06:00:00
4:30 PM,82.4,68.0,62,29.89,6.2,NE,10.4,-,N/A,,Partly Cloudy,50,2013-09-29 06:30:00
5:00 PM,82.4,66.2,58,29.89,6.2,ENE,11.5,-,N/A,,Partly Cloudy,60,2013-09-29 07:00:00
5:30 PM,80.6,66.2,61,29.89,6.2,ENE,10.4,-,N/A,,Partly Cloudy,70,2013-09-29 07:30:00
6:00 PM,78,67,61,29.91,,ENE,10.4,,,,,70,2013-09-29 08:00:00
6:00 PM,78.8,68.0,69,29.89,6.2,ENE,10.4,-,N/A,,Partly Cloudy,70,2013-09-29 08:00:00
6:30 PM,77.0,68.0,74,29.92,6.2,ENE,10.4,-,N/A,,Partly Cloudy,70,2013-09-29 08:30:00
7:00 PM,77,68,67,29.94,,East,9.2,,,,,80,2013-09-29 09:00:00
7:00 PM,77.0,68.0,74,29.92,6.2,East,9.2,-,N/A,,Partly Cloudy,80,2013-09-29 09:00:00
7:30 PM,75.2,68.0,78,29.92,6.2,ESE,6.9,-,N/A,,Partly Cloudy,110,2013-09-29 09:30:00
8:00 PM,73.4,68.0,83,29.95,6.2,SSE,5.8,-,N/A,,Partly Cloudy,160,2013-09-29 10:00:00
8:30 PM,75.2,66.2,73,29.95,6.2,South,4.6,-,N/A,,Partly Cloudy,180,2013-09-29 10:30:00
9:00 PM,74,67,74,29.97,,Calm,Calm,,,,,,2013-09-29 11:00:00
9:00 PM,75.2,68.0,78,29.95,6.2,Calm,Calm,-,N/A,,Partly Cloudy,0,2013-09-29 11:00:00
9:30 PM,73.4,66.2,78,29.95,6.2,South,3.5,-,N/A,,Partly Cloudy,170,2013-09-29 11:30:00
10:00 PM,73,67,76,29.99,,SSE,5.8,,,,,150,2013-09-29 12:00:00
10:00 PM,73.4,66.2,78,29.98,6.2,SSE,5.8,-,N/A,,Partly Cloudy,150,2013-09-29 12:00:00
10:30 PM,73.4,66.2,78,29.98,6.2,SSE,5.8,-,N/A,,Partly Cloudy,150,2013-09-29 12:30:00
11:00 PM,73.4,66.2,78,29.98,6.2,South,5.8,-,N/A,,Partly Cloudy,170,2013-09-29 13:00:00
11:30 PM,71.6,66.2,83,29.98,6.2,SE,8.1,-,N/A,,Partly Cloudy,140,2013-09-29 13:30:00